Portada
METAR-TAF:

METAR-TAF

Aeroports :

Grafton, Austràlia

latitud: 29-45-36S, longitud: 153-01-48E, altitud: 34 m

Observació

L'informe es va fer fa 1 hora i 22 minuts, a les 19:00 UTC
Vent 4 kt del Sud
Temperatura 14°C
Humitat 82%
Pressió 1015 hPa
Visibilitat 10 km o més

METAR: YGFN 171900Z AUTO 19004KT 9999 // NCD 14/11 Q1015

Hora: 07:22 (20:22 UTC)


TAF: manca

Observacions i pronòstics meteorològics de més de 4000 aeroports (METAR i TAF).

Les estacions disponibles són els punts grocs i vermells al mapa.

Posi el ratolí al punt desitjat per veure el nom de l'estació.

Feu clic per veure les observacions i els pronòstics meteorològics.

Per canviar el mapa: feu clic els botons verds amb una creu de color negre per apropar; al botó verd amb un guió per allunyar la imatge; o en les fletxes verdes per a mapes adjacents.


METAR-TAF: